TimeCST,TemperatureF,Dew PointF,Humidity,Sea Level PressureIn,VisibilityMPH,Wind Direction,Wind SpeedMPH,Gust SpeedMPH,PrecipitationIn,Events,Conditions,WindDirDegrees,DateUTC
12:53 AM,63.0,55.0,75,30.03,10.0,East,16.1,-,N/A,,Clear,100,2013-02-20 06:53:00
1:53 AM,62.1,55.9,80,30.04,10.0,ESE,10.4,-,N/A,,Clear,110,2013-02-20 07:53:00
2:53 AM,63.0,57.0,81,30.04,10.0,East,5.8,-,N/A,,Mostly Cloudy,80,2013-02-20 08:53:00
3:45 AM,62.6,57.2,82,30.04,10.0,East,4.6,-,N/A,,Overcast,80,2013-02-20 09:45:00
3:53 AM,63.0,57.9,84,30.05,10.0,ENE,5.8,-,N/A,,Overcast,60,2013-02-20 09:53:00
4:53 AM,62.1,57.9,86,30.02,10.0,NE,6.9,-,0.00,,Overcast,50,2013-02-20 10:53:00
5:53 AM,64.0,59.0,84,30.00,10.0,East,10.4,-,N/A,,Overcast,90,2013-02-20 11:53:00
6:53 AM,64.0,60.1,87,29.98,10.0,East,11.5,-,N/A,,Overcast,100,2013-02-20 12:53:00
7:53 AM,64.9,61.0,87,29.99,7.0,ESE,12.7,-,N/A,,Overcast,110,2013-02-20 13:53:00
8:53 AM,66.0,62.1,87,29.98,7.0,ESE,15.0,-,N/A,,Overcast,120,2013-02-20 14:53:00
10:53 AM,68.0,64.0,87,29.93,7.0,SE,17.3,24.2,N/A,,Overcast,130,2013-02-20 16:53:00
11:18 AM,68.0,64.4,88,29.93,6.0,SE,15.0,-,N/A,,Overcast,130,2013-02-20 17:18:00
11:53 AM,69.1,64.0,84,29.94,6.0,SE,11.5,-,N/A,,Haze,130,2013-02-20 17:53:00
12:42 PM,69.8,64.4,83,29.90,6.0,SE,12.7,-,N/A,,Overcast,130,2013-02-20 18:42:00
12:53 PM,69.1,64.9,87,29.90,6.0,SE,12.7,-,N/A,,Overcast,130,2013-02-20 18:53:00
1:53 PM,70.0,64.9,84,29.87,6.0,SE,10.4,-,N/A,,Haze,140,2013-02-20 19:53:00
2:53 PM,69.1,64.9,87,29.83,6.0,SE,13.8,-,N/A,,Overcast,130,2013-02-20 20:53:00
3:53 PM,69.1,64.9,87,29.80,6.0,SE,15.0,-,0.00,,Overcast,130,2013-02-20 21:53:00
4:02 PM,69.8,64.4,83,29.79,6.0,SE,15.0,-,N/A,,Overcast,130,2013-02-20 22:02:00
4:32 PM,69.8,64.4,83,29.78,6.0,SE,16.1,-,N/A,,Overcast,130,2013-02-20 22:32:00
4:53 PM,69.1,64.9,87,29.78,6.0,SE,11.5,-,N/A,,Overcast,130,2013-02-20 22:53:00
5:53 PM,68.0,64.9,90,29.77,6.0,SE,12.7,-,N/A,,Overcast,130,2013-02-20 23:53:00
6:53 PM,68.0,64.9,90,29.77,7.0,SE,13.8,-,N/A,,Overcast,140,2013-02-21 00:53:00
7:53 PM,68.0,66.0,93,29.77,6.0,SE,13.8,-,0.00,,Overcast,130,2013-02-21 01:53:00
8:37 PM,68.0,66.2,94,29.76,6.0,SE,15.0,-,N/A,,Overcast,130,2013-02-21 02:37:00
9:25 PM,68.0,66.2,94,29.75,6.0,SE,16.1,25.3,N/A,,Overcast,130,2013-02-21 03:25:00
9:53 PM,68.0,66.0,93,29.75,6.0,SE,15.0,-,N/A,,Overcast,140,2013-02-21 03:53:00
10:53 PM,68.0,66.0,93,29.73,6.0,SE,18.4,26.5,N/A,,Overcast,140,2013-02-21 04:53:00
11:50 PM,68.0,66.2,94,29.71,6.0,SE,13.8,-,N/A,,Overcast,130,2013-02-21 05:50:00
11:53 PM,68.0,66.0,93,29.72,6.0,SE,13.8,-,N/A,,Overcast,130,2013-02-21 05:53:00